Regional Weather Roundup
Issued by NWS Wilmington, NC

Home | Current Version | Previous Version | Text Only | Print | Product List | Glossary On
Versions: 1 2 3 4 5 6 7 8 9 10 11 12 13 14 15 16 17 18 19 20 21 22 23 24 25 26 27 28 29 30 31 32 33 34 35 36 37 38 39 40 41 42 43 44 45 46 47 48 49 50
000
ASUS42 KILM 202110
RWRILM
RWRILM
REGIONAL HOURLY WEATHER ROUNDUP
NATIONAL WEATHER SERVICE WILMINGTON NC
500 PM EDT WED AUG 20 2014

NOTE: "FAIR" INDICATES FEW OR NO CLOUDS BELOW 12,000 FEET WITH NO
SIGNIFICANT WEATHER AND/OR OBSTRUCTIONS TO VISIBILITY.

...............WFO WILMINGTON COUNTY WARNING AREA...............

......COASTAL NC AND SC COUNTIES......

CITY           SKY/WX    TMP DP  RH WIND       PRES   REMARKS
WILMINGTON     CLOUDY    78  73  84 CALM      29.98F
SOUTHPORT      PTSUNNY   85  76  74 S6        29.97F HX  93
N MYRTLE BEACH RAIN      77  71  82 VRB3      29.97S
MYRTLE BEACH   MOSUNNY   88  75  66 S12       29.97  HX  97

......INLAND NC AND SC COUNTIES.......

CITY           SKY/WX    TMP DP  RH WIND       PRES   REMARKS
LUMBERTON      MOSUNNY   87  75  67 SE6       29.98R HX  96
ELIZABETHTOWN  MOSUNNY   85  74  68 SE5       29.98R HX  93
WHITEVILLE     MOSUNNY   82  75  78 CALM      29.97S
FLORENCE       MOSUNNY   93  71  48 W7        29.96R HX 100
DARLINGTON     CLOUDY    90  72  55 SW5       29.98R HX  96

....................REST OF NORTH CAROLINA......................

.........EASTERN NC.........

CITY           SKY/WX    TMP DP  RH WIND       PRES   REMARKS
CAPE HATTERAS  CLOUDY    81  73  76 E6        29.97S
JACKSONVILLE   CLOUDY    84  73  70 SW13      29.97S HX  91
MOREHEAD CITY  MOSUNNY   83  74  74 S10       29.97R
KENANSVILLE    CLOUDY    85  72  63 CALM      29.98R HX  91
NEW BERN       PTSUNNY   88  71  57 W3        29.98R HX  94
ELIZABETH CITY SUNNY     83  70  64 E5        29.97R

.........CENTRAL NC.........

CITY           SKY/WX    TMP DP  RH WIND       PRES   REMARKS
RALEIGH DURHAM MOSUNNY   89  71  55 SW5       29.97S HX  95
ROCKY MOUNT    MOSUNNY   87  71  58 CALM      29.98R HX  93
ROANOKE RAPIDS NOT AVBL
FAYETTEVILLE   PTSUNNY   90  72  55 S7        29.97R HX  97
HOFFMAN        PTSUNNY   83  67  58 NE7       29.99R

.........WESTERN NC.........

CITY           SKY/WX    TMP DP  RH WIND       PRES   REMARKS
CHARLOTTE      PTSUNNY   88  69  53 SW6       29.98F HX  92
GREENSBORO     PTSUNNY   86  69  56 W8        29.98S HX  90
HICKORY        NOT AVBL
BOONE          NOT AVBL
ASHEVILLE      NOT AVBL

.....................REST OF SOUTH CAROLINA.....................

.........EASTERN SC.........

CITY           SKY/WX    TMP DP  RH WIND       PRES   REMARKS
CHARLESTON     MOSUNNY   95  71  45 NW5       29.97R HX 102
BEAUFORT MCAS  MOSUNNY   96  69  41 NE7       29.96F HX 102
HILTON HEAD    NOT AVBL

.........CENTRAL SC.........

CITY           SKY/WX    TMP DP  RH WIND       PRES   REMARKS
COLUMBIA       MOSUNNY   95  66  38 NW6       29.94F HX  98
ORANGEBURG     SUNNY     93  68  43 SW6       29.96F HX  97
SUMTER SHAW    PTSUNNY   94  74  51 W7        29.95S HX 103

.........WESTERN SC.........

CITY           SKY/WX    TMP DP  RH WIND       PRES   REMARKS
GREENVILLE     NOT AVBL
ROCK HILL      MOSUNNY   88  70  55 W5        29.98F HX  93
ANDERSON       PTSUNNY   92  70  48 S9        30.00S HX  97
CLEMSON        NOT AVBL
GREENWOOD      PTSUNNY   94  64  37 NW5       30.00S HX  95


...................COASTAL AND OFFSHORE REPORTS..................

................LOCAL PIERS AND NC RESERVE................


STATION/POSITION TIME  SKY/WX   TEMP    WIND        PRES    VSBY
                                AIR SEA DIR/SP/G
                 (UTC)          (F)     (DEG/KT/KT) (MB)    (MI)
JOHNY MRCER PIER 2100            80 85  270/  3/  5 1014.3F
NC RESRV MASNBRO 2000            79     260/  2     1015.0S
OCEAN CREST PIER 2100            82 86  210/  6/  7 1014.0F
SPRINGMAID  PIER 2100            84 83  180/ 11/ 13 1014.8F


................COASTAL AND OFFSHORE BUOYS................


STATION/POSITION TIME  SKY/WX   TEMP    WIND        PRES    VSBY
                                AIR SEA DIR/SP/G
                 (UTC)          (F)     (DEG/KT/KT) (MB)    (MI)
DIMNDSHOAL 41025 2100            78     310/  6/  8 1014.8R
WVE H/P(F/S)=  2/ 7 WND WVE H/P(F/S)=  2/ 4 SWL H/P/D(F/S/D)=  2/160/ 7

CAPE LOOKOUT     2000            81     170/  8/  9 1014.7F
ONSLOW BAY 41036 2100            82 85  200/  8/  8 1014.5F
WVE H/P(F/S)=  3/ 6 WND WVE H/P(F/S)=  2/ 4 SWL H/P/D(F/S/D)=  3/200/ 6

5 WRITEBCH 41038 2000            79 83  220/  6/  8   N/A
MASONBORO  41110 2100               83                N/A
WVE H/P(F/S)=  2/ 5 WND WVE H/P(F/S)=  2/ 5

WILM HARBR 41108 2100               85                N/A
WVE H/P(F/S)=  3/ 5 WND WVE H/P(F/S)=  3/ 5

27WRITEBCH 41037 2000            80 84  230/  6/  8 1015.3R
FRYING PAN 41013 NOT AVBL
SUNST NRSH 41024 2000            79      60/ 16/ 19 1015.7R
CAPRS NRSH 41029 2000            85     220/ 14/ 16   N/A
EDISTO     41004 2100            83 84  230/ 12/ 14 1014.6R
WVE H/P(F/S)=  3/ 5 WND WVE H/P(F/S)=  3/ 5 SWL H/P/D(F/S/D)=  2/ 9



..........OFFSHORE BUOYS BEYOND 100 NM OFFSHORE...........
.....IN A TRIANGLE---HAT TO BERMUDA TO BAHAMAS TO HAT.....


STATION/POSITION TIME  SKY/WX   TEMP    WIND        PRES    VSBY
                                AIR SEA DIR/SP/G
                 (UTC)          (F)     (DEG/KT/KT) (MB)    (MI)
150E HAT   41001 NOT AVBL
W BERMUDA  41048 1959            83 82  220/ 17/ 19 1017.3
WVE H/P(F/S)=  6/ 7 WND WVE H/P(F/S)=  7/ 7

ATLANTIC S 41049 2046            84 87   10/ 10/ 12 1020.5R
WVE H/P(F/S)=  3/ 9 SWL H/P/D(F/S/D)=  3/ 70/ 9

E BAHAMAS  41046 1955            84 86   70/ 12/ 14 1018.7
WVE H/P(F/S)=  3/ 6 WND WVE H/P(F/S)=  2/ 3 SWL H/P/D(F/S/D)=  3/120/ 6

NE BAHAMAS 41047 2004            85 85  220/  6/  6 1020.0S
WVE H/P(F/S)=  3/ 7 WND WVE H/P(F/S)=  2/ 3 SWL H/P/D(F/S/D)=  3/130/ 7

120E CANVRL41010 2100            85 86  290/  6/  6 1017.8F
WVE H/P(F/S)=  2/ 8 WND WVE H/P(F/S)=  2/ 3 SWL H/P/D(F/S/D)=  2/110/ 8


END


USA.gov is the U.S. government's official web portal to all federal, state and local government web resources and services.